TimeCST,TemperatureF,Dew PointF,Humidity,Sea Level PressureIn,VisibilityMPH,Wind Direction,Wind SpeedMPH,Gust SpeedMPH,PrecipitationIn,Events,Conditions,WindDirDegrees,DateUTC
12:53 AM,33.1,23.0,66,29.95,10.0,SW,3.5,-,N/A,,Partly Cloudy,230,2013-02-14 06:53:00
1:53 AM,33.1,24.1,70,29.96,10.0,SW,4.6,-,N/A,,Partly Cloudy,230,2013-02-14 07:53:00
2:53 AM,34.0,23.0,64,29.96,10.0,WNW,5.8,-,N/A,,Partly Cloudy,290,2013-02-14 08:53:00
3:53 AM,34.0,24.1,67,29.97,10.0,NW,9.2,-,N/A,,Clear,310,2013-02-14 09:53:00
4:53 AM,39.0,26.1,60,29.97,10.0,NW,16.1,-,N/A,,Clear,320,2013-02-14 10:53:00
5:53 AM,37.0,26.1,65,30.01,10.0,NNW,13.8,-,N/A,,Scattered Clouds,330,2013-02-14 11:53:00
6:53 AM,36.0,26.1,67,30.03,10.0,NNW,10.4,-,N/A,,Mostly Cloudy,340,2013-02-14 12:53:00
7:53 AM,37.0,27.0,67,30.06,10.0,NNW,6.9,-,N/A,,Mostly Cloudy,340,2013-02-14 13:53:00
8:53 AM,39.9,28.9,65,30.09,10.0,North,9.2,-,N/A,,Mostly Cloudy,350,2013-02-14 14:53:00
9:53 AM,44.1,30.9,60,30.11,10.0,North,13.8,-,N/A,,Mostly Cloudy,360,2013-02-14 15:53:00
10:53 AM,46.9,32.0,56,30.11,10.0,North,11.5,-,N/A,,Mostly Cloudy,360,2013-02-14 16:53:00
11:53 AM,48.0,30.9,52,30.12,10.0,North,8.1,-,N/A,,Overcast,10,2013-02-14 17:53:00
12:53 PM,48.0,30.0,50,30.12,10.0,North,8.1,-,N/A,,Overcast,360,2013-02-14 18:53:00
1:53 PM,48.9,30.0,48,30.12,10.0,NNW,9.2,-,N/A,,Overcast,340,2013-02-14 19:53:00
2:53 PM,51.1,30.0,44,30.10,10.0,NNW,10.4,-,N/A,,Overcast,340,2013-02-14 20:53:00
3:53 PM,50.0,28.0,43,30.12,10.0,NNW,12.7,-,N/A,,Overcast,340,2013-02-14 21:53:00
4:53 PM,48.0,28.0,46,30.14,10.0,NNW,13.8,-,N/A,,Overcast,340,2013-02-14 22:53:00
5:53 PM,45.0,28.0,52,30.17,10.0,NNW,15.0,-,N/A,,Mostly Cloudy,340,2013-02-14 23:53:00
6:53 PM,44.1,26.1,49,30.19,10.0,NW,8.1,-,N/A,,Mostly Cloudy,320,2013-02-15 00:53:00
7:53 PM,39.0,26.1,60,30.22,10.0,WNW,8.1,-,N/A,,Scattered Clouds,290,2013-02-15 01:53:00
8:53 PM,39.0,30.9,73,30.24,10.0,WNW,10.4,-,N/A,,Scattered Clouds,300,2013-02-15 02:53:00
9:53 PM,41.0,23.0,49,30.27,10.0,NNW,19.6,26.5,N/A,,Scattered Clouds,340,2013-02-15 03:53:00
10:53 PM,39.0,19.0,45,30.28,10.0,North,18.4,24.2,N/A,,Scattered Clouds,350,2013-02-15 04:53:00
11:53 PM,35.1,17.1,48,30.30,10.0,North,20.7,28.8,N/A,,Clear,360,2013-02-15 05:53:00